Theta_e
327 322 321 316 298 298 294 300 308 308 307 307 310 311 318 322 320 313 334 346 351 354 361 364 365 365 364 363 363 361 360 361 361 361 361 362 362 362 361 361 361 360 357 354 351 348 344 341 338
323 322 317 308 295 290 295 304 303 304 307 309 311 309 316 315 325 328 336 347 350 354 357 361 365 364 364 363 362 361 361 361 361 361 361 362 362 362 361 361 360 357 354 351 347 344 341 339 337
319 321 308 301 296 292 296 304 306 307 310 309 308 312 317 318 325 327 338 347 350 351 353 361 365 364 364 363 362 361 360 361 361 361 361 362 362 361 360 360 359 356 352 348 344 343 343 341 339
313 312 310 298 295 301 304 306 309 309 310 311 310 310 319 325 325 329 338 347 349 349 353 362 364 364 363 363 362 361 361 361 361 362 361 362 362 360 359 360 358 356 352 347 345 346 345 344 342
310 307 298 296 298 303 308 309 308 306 307 308 310 308 315 322 326 334 337 343 346 346 354 358 363 364 364 364 363 362 361 361 361 362 362 362 361 360 359 359 358 356 353 350 347 346 346 346 346
303 306 295 294 299 306 310 311 310 307 307 308 310 310 314 320 321 324 338 335 344 344 354 356 362 363 363 363 362 362 361 361 361 362 361 361 360 359 358 358 357 355 353 351 349 348 347 347 347
301 298 296 298 301 304 308 312 313 310 311 308 311 310 314 317 319 320 336 336 340 347 352 353 356 361 363 362 361 361 361 361 361 360 360 360 359 358 357 356 356 355 353 351 350 349 347 346 346
303 300 297 299 299 301 309 310 310 308 310 316 318 309 308 316 320 320 328 333 346 350 351 350 354 357 357 359 361 361 361 361 360 360 360 359 358 357 356 353 354 354 353 352 351 350 349 348 347
306 295 294 298 301 303 309 307 311 311 309 313 316 316 319 321 319 318 318 329 346 351 349 348 350 352 352 354 360 360 362 361 360 360 359 356 350 351 352 352 352 353 353 352 351 351 350 349 349
300 296 297 303 305 303 306 307 308 309 308 309 313 319 322 319 316 316 315 317 331 347 347 346 346 348 348 355 354 353 357 355 354 354 353 350 346 346 349 350 352 353 353 352 352 351 351 350 341
300 296 301 304 306 308 306 306 309 307 305 308 309 314 318 316 315 315 315 314 317 345 346 344 346 346 345 346 351 351 352 351 350 350 349 345 344 343 345 341 344 345 350 345 347 346 344 341 337
296 301 303 304 307 306 305 307 306 306 310 314 314 315 315 314 313 313 313 316 322 331 342 342 344 345 343 344 348 346 347 346 346 345 347 344 339 336 339 340 340 342 342 341 337 339 337 336 334
296 299 303 305 306 306 307 305 305 306 309 314 316 316 314 313 314 313 314 316 319 323 334 337 345 343 342 344 347 345 343 344 343 344 345 346 339 340 338 340 340 341 341 341 338 336 335 335 335
298 299 299 301 302 303 302 303 304 307 309 309 313 314 314 313 314 312 312 313 324 326 329 337 347 345 344 350 348 346 339 343 344 344 345 345 345 339 343 340 344 343 343 343 340 337 336 337 336
299 295 298 299 299 298 301 298 299 305 308 306 307 312 315 314 314 314 312 314 322 324 328 331 341 349 346 346 348 349 350 342 342 345 345 347 345 346 340 345 342 342 342 342 340 339 340 338 338
294 293 288 295 299 301 297 292 301 304 304 304 306 307 309 312 313 312 314 319 320 324 324 328 339 347 346 348 349 348 348 347 345 345 347 349 347 346 349 344 344 342 341 340 338 335 332 332 333
290 286 289 293 300 299 297 294 301 304 304 302 304 305 306 306 311 312 316 319 320 322 322 325 330 336 346 346 348 346 346 346 346 344 347 349 350 351 347 347 344 343 341 340 339 335 333 331 333
287 288 291 291 296 298 296 296 300 302 303 302 302 303 305 306 308 314 319 321 323 323 324 324 329 333 344 345 345 344 342 343 342 341 341 349 351 350 348 347 344 343 342 339 335 332 333 333 332
294 293 292 295 299 296 295 296 298 300 300 299 299 302 303 306 308 310 318 321 321 321 321 324 327 327 336 341 340 340 337 339 341 340 339 340 347 350 348 344 344 345 341 336 334 332 330 329 332
294 291 290 295 298 296 295 294 297 300 299 299 300 301 303 304 306 309 315 315 316 320 321 319 320 329 328 342 341 341 341 341 339 340 340 340 342 344 349 347 344 342 338 337 335 333 331 331 334
293 291 291 291 296 296 294 291 294 298 300 301 302 302 304 304 305 307 313 314 316 316 317 318 321 322 325 329 335 340 342 345 342 339 338 339 340 340 342 344 344 341 340 337 336 337 335 331 332
290 296 295 294 291 285 293 283 291 296 297 299 301 302 301 304 306 306 310 311 314 316 317 316 319 320 324 323 326 325 331 332 336 335 340 339 339 337 338 342 343 341 341 339 337 337 337 333 329
293 297 294 294 289 286 289 285 289 294 294 296 299 302 303 303 303 305 308 311 311 312 314 319 319 320 322 323 325 325 327 329 329 331 332 343 343 340 339 339 341 342 340 340 339 338 339 337 335
301 297 292 290 286 280 287 286 287 290 293 296 301 302 303 302 304 305 307 308 309 309 310 313 317 318 322 322 322 323 322 325 325 325 327 331 333 339 342 341 342 340 341 341 337 338 338 337 338
297 292 282 278 278 279 289 287 288 295 299 300 300 303 301 305 304 306 306 306 307 307 308 312 312 313 318 319 321 325 326 327 325 325 325 325 326 329 340 343 341 340 342 341 341 338 341 341 341
292 291 283 276 275 280 290 285 289 299 302 303 303 301 303 300 302 304 306 306 307 308 309 311 314 315 317 319 320 322 323 326 328 328 326 325 326 326 329 334 343 343 343 342 342 339 337 339 342
292 289 294 286 287 283 285 290 295 299 300 303 302 301 299 298 300 303 304 305 308 307 310 310 314 314 316 317 318 319 324 323 322 323 324 331 329 330 330 332 335 340 343 341 340 338 337 341 344
293 295 286 286 278 277 283 285 286 294 297 299 300 300 300 301 301 302 303 304 306 308 309 311 312 311 312 312 315 322 322 325 324 325 325 326 328 331 331 331 330 333 336 348 350 348 348 346 349
288 287 290 289 286 281 278 282 295 294 296 298 300 301 300 301 301 301 302 303 305 306 309 310 311 312 313 314 313 314 315 320 324 326 327 328 329 330 332 333 334 333 333 337 349 350 350 348 349
294 289 290 282 283 285 284 283 297 296 296 299 300 302 303 300 300 301 302 304 304 305 306 309 312 311 311 314 316 315 315 316 318 319 321 323 324 329 331 334 333 334 335 334 336 344 349 347 347
Wind_Speed
10 11 6 2 3 4 6 10 9 15 6 4 5 11 22 14 9 8 5 17 22 17 12 12 16 21 21 20 15 15 15 15 16 15 15 15 14 15 13 12 12 11 11 10 9 8 7 7 6
6 9 2 2 3 1 8 11 3 4 5 7 8 6 14 11 10 7 9 14 20 18 12 11 16 19 21 20 17 15 16 16 15 14 14 14 14 13 12 11 11 11 10 9 8 7 6 5 5
7 5 2 2 3 7 7 5 6 6 9 9 8 6 8 6 9 5 11 16 17 16 13 13 16 18 20 21 18 16 15 16 15 15 14 14 14 13 11 11 10 10 9 8 6 6 5 4 4
4 5 4 2 9 14 13 8 11 6 5 7 6 7 5 6 5 7 10 18 15 14 14 17 17 16 20 20 21 16 15 15 15 15 14 13 13 12 10 10 9 8 8 7 6 6 4 3 3
2 2 3 3 9 11 15 7 7 8 7 5 6 7 7 5 8 10 8 15 19 16 14 15 17 16 19 19 20 18 15 13 13 14 13 13 12 12 10 9 10 9 8 7 6 4 3 2 1
3 2 3 5 9 12 12 13 3 6 8 9 10 9 4 3 8 4 8 3 16 20 14 16 17 15 15 19 20 19 17 14 13 13 13 13 11 11 10 8 9 9 8 7 6 5 4 2 2
5 2 6 9 13 18 17 8 18 12 13 10 4 5 3 9 7 7 7 6 12 17 16 15 13 13 14 17 18 19 18 16 15 14 13 13 12 11 9 8 7 7 7 6 6 5 5 5 5
2 3 10 10 12 15 18 7 11 12 12 9 2 4 2 1 7 8 3 5 17 14 15 15 15 11 8 9 17 19 19 17 16 14 13 12 11 11 11 9 7 7 7 7 7 7 7 8 9
5 5 11 15 16 16 19 12 7 4 5 1 3 8 10 6 7 10 8 6 16 11 11 14 13 12 9 6 11 15 19 18 17 14 14 11 5 6 7 7 8 8 8 8 8 8 9 10 11
7 9 16 9 13 13 18 18 13 2 6 4 3 7 5 8 7 10 9 8 9 11 11 14 15 13 11 9 7 8 10 8 8 9 9 6 6 6 8 9 11 12 11 10 9 10 12 12 5
11 17 13 16 14 20 22 22 15 7 6 6 10 9 5 8 7 8 7 5 4 13 9 8 16 16 14 9 7 5 5 5 5 9 8 6 6 5 5 4 4 4 9 4 6 8 7 8 5
13 18 19 19 20 20 17 15 18 11 8 13 12 9 5 8 7 6 4 5 6 12 6 10 9 16 15 9 8 7 6 6 6 6 9 6 4 5 5 4 6 5 4 6 6 6 7 7 6
9 10 16 17 21 21 18 18 17 19 12 2 11 10 8 5 8 7 4 4 3 6 8 7 8 10 12 11 10 9 8 8 8 8 8 6 5 5 5 5 5 6 5 6 7 7 6 6 7
7 11 12 11 12 11 11 12 8 21 8 9 6 14 15 9 9 6 6 3 5 5 9 5 12 9 9 7 9 6 5 9 10 9 9 9 7 6 5 5 6 5 7 7 6 6 7 7 5
10 11 12 12 7 7 7 9 14 13 12 9 14 6 10 10 11 12 11 8 9 3 5 9 7 9 10 9 9 8 6 6 8 9 12 12 9 8 8 5 5 6 5 7 5 5 4 3 4
8 8 6 7 9 12 4 17 16 10 11 12 15 8 7 11 10 9 10 10 9 8 6 1 5 8 7 7 4 4 6 7 8 7 10 14 12 9 6 5 5 5 5 3 4 4 4 3 2
5 9 11 17 14 16 10 21 19 15 13 10 12 11 9 6 10 8 11 11 10 8 8 4 1 5 10 8 6 5 6 5 5 6 5 12 13 11 9 5 5 5 5 4 4 3 3 2 2
8 9 9 13 16 13 19 22 20 15 17 16 10 9 9 4 2 6 9 9 10 9 7 5 3 5 6 3 5 5 1 4 4 6 5 9 9 10 7 4 5 6 4 4 2 3 2 3 2
16 15 16 17 13 7 10 10 11 11 6 6 7 8 9 8 6 5 10 10 9 9 8 5 3 3 3 2 3 3 4 3 3 5 7 8 6 7 10 6 5 5 6 6 6 4 4 3 3
13 13 17 14 11 12 15 16 12 7 4 4 6 7 9 6 6 7 10 7 8 8 8 6 3 2 2 3 3 2 5 2 3 3 3 6 8 7 7 7 7 7 4 6 6 5 3 3 4
11 8 10 12 10 15 15 15 12 7 4 5 10 8 9 13 11 10 16 12 10 9 9 6 4 1 2 3 3 3 3 3 3 4 3 5 7 8 7 7 7 7 7 9 9 9 9 8 0
16 7 12 16 13 6 6 12 9 8 9 10 16 18 10 10 9 9 14 9 10 8 8 8 7 4 3 5 4 5 5 6 5 3 3 4 7 9 8 10 10 10 8 11 12 11 9 6 5
14 10 11 15 7 4 9 6 9 6 12 13 12 20 18 11 10 10 14 11 9 9 8 8 8 6 5 5 5 5 3 3 3 3 4 6 8 7 10 7 7 10 10 13 12 4 9 6 5
18 22 8 6 2 4 13 8 14 10 8 9 17 11 16 11 11 12 11 11 9 8 8 8 7 4 6 6 6 7 6 5 4 2 3 3 5 7 11 12 11 10 10 12 9 6 8 9 9
12 9 7 8 4 11 16 11 12 10 15 13 24 24 10 15 12 11 11 10 9 9 9 7 7 6 6 6 6 8 8 5 4 3 2 4 3 2 3 9 10 9 12 12 12 11 11 9 10
1 7 5 7 3 6 14 15 17 7 10 10 14 7 13 11 10 12 14 12 9 9 9 9 8 8 8 8 7 6 6 3 4 3 1 5 3 4 4 4 6 8 11 16 13 9 9 10 11
5 6 14 9 5 6 6 19 8 9 13 4 14 4 6 8 8 9 9 9 11 8 9 10 9 8 8 8 7 7 6 5 5 5 4 4 4 3 4 5 6 7 12 16 15 11 10 12 13
4 3 3 2 4 5 4 9 7 8 7 15 8 10 8 7 9 8 7 6 6 9 9 10 10 10 9 7 6 6 7 7 6 5 7 7 6 5 5 7 6 7 9 11 13 11 11 12 9
1 2 2 4 3 4 2 5 4 5 7 4 18 10 7 9 9 7 5 6 7 6 7 9 9 9 8 8 8 6 6 5 5 5 6 5 4 6 6 7 8 7 7 9 11 12 10 11 12
6 4 6 3 3 5 2 8 9 3 3 7 11 10 17 4 8 8 8 9 8 7 7 9 8 8 7 8 8 8 6 3 3 4 4 5 6 6 5 6 6 9 10 10 11 13 11 12 11
Wind_Direction
318 309 298 323 48 88 257 253 231 285 289 293 50 75 73 61 69 117 152 119 123 132 142 151 151 138 134 134 138 136 133 130 128 127 127 122 120 117 119 120 121 119 120 121 122 120 110 104 95
319 312 322 270 118 136 260 246 4 0 358 3 26 85 73 70 77 76 104 129 135 136 144 149 152 144 138 137 139 141 139 136 133 134 132 130 127 126 128 126 125 128 129 125 122 119 113 108 107
288 231 355 165 199 227 242 326 351 1 20 7 10 30 91 118 46 89 113 133 136 139 149 153 152 150 144 141 140 143 143 142 141 140 138 135 134 134 137 133 132 132 128 121 117 110 108 116 112
316 332 309 109 262 268 278 323 334 344 14 12 357 67 76 110 108 130 115 141 139 149 149 151 150 157 147 146 143 146 146 147 146 143 141 140 140 136 142 140 136 134 133 128 130 126 136 140 118
295 287 272 228 249 265 279 268 351 353 347 354 13 334 93 65 97 118 123 144 150 158 149 150 151 157 150 148 144 144 144 143 142 140 141 139 142 141 144 148 143 145 145 140 144 149 159 161 152
303 132 259 266 270 268 268 290 330 345 326 330 354 15 46 81 57 86 129 190 156 155 153 150 150 154 156 149 145 143 142 142 142 139 141 142 145 144 150 157 152 154 157 157 161 169 185 208 251
204 276 252 255 261 275 275 251 215 241 259 283 307 10 336 36 9 356 145 171 119 152 147 148 145 150 155 149 146 142 141 142 143 144 145 145 149 150 154 163 165 166 165 167 177 191 204 218 232
229 252 258 258 266 271 279 296 202 175 215 289 318 211 140 284 22 4 101 152 122 147 144 148 141 142 138 151 145 144 144 146 146 145 146 148 153 158 159 175 182 180 177 183 195 204 213 229 232
257 243 248 244 253 265 280 290 272 198 123 82 302 218 155 153 68 23 19 334 119 138 145 145 142 140 135 134 149 144 147 148 148 147 147 148 149 158 164 182 195 193 197 200 207 213 223 227 235
206 238 244 257 269 277 285 292 301 139 175 243 293 298 82 77 50 60 34 358 92 144 162 154 149 148 147 159 152 144 153 149 151 151 156 159 169 174 178 191 208 201 203 205 208 221 225 229 215
240 245 250 255 250 258 264 278 291 254 208 203 211 211 240 103 77 60 42 11 318 154 151 186 156 151 156 157 154 162 156 151 160 157 164 169 182 184 184 187 196 196 208 207 211 229 228 225 209
230 236 241 251 254 260 262 281 284 290 212 219 209 211 223 109 115 95 56 47 7 95 130 157 179 159 164 140 160 168 167 164 169 172 169 174 177 195 186 178 187 189 200 210 212 229 234 236 232
254 254 247 247 243 253 263 265 275 281 289 327 196 174 231 164 134 125 96 43 155 63 99 107 166 177 170 148 159 171 176 178 171 176 177 172 178 189 190 184 186 193 190 212 221 222 229 233 224
261 269 266 267 259 253 247 258 276 266 296 307 231 205 201 184 162 167 151 151 100 100 105 99 155 184 168 131 145 153 175 184 172 173 184 179 179 190 200 195 190 193 201 217 226 214 224 230 218
305 300 298 283 276 277 305 283 260 282 292 277 282 200 207 196 189 179 176 170 142 133 107 134 131 154 179 170 154 153 165 176 184 180 178 183 187 191 199 202 204 207 203 208 207 238 240 231 219
312 309 297 286 293 270 252 266 250 273 241 254 269 262 197 212 206 198 181 158 149 144 130 78 132 167 173 153 141 153 156 158 182 184 179 183 191 192 183 193 209 208 238 238 218 209 232 221 215
277 260 269 279 246 254 223 254 251 233 246 241 249 260 252 256 205 213 174 159 147 145 130 103 349 256 182 181 155 161 177 172 163 152 166 187 189 189 196 198 188 203 223 233 222 237 197 260 293
263 267 255 250 266 260 249 245 251 225 221 231 232 239 250 242 241 109 140 124 120 116 106 92 47 329 290 172 135 131 335 245 216 146 174 153 199 193 191 190 190 204 216 225 193 164 218 206 189
246 263 274 280 289 319 296 288 302 214 202 251 265 265 210 190 161 126 144 130 117 114 114 106 93 319 324 278 173 144 162 246 264 215 156 153 181 185 201 197 189 197 208 191 188 184 210 284 175
261 272 287 293 315 313 304 292 280 273 230 214 259 264 213 190 170 135 134 133 127 139 133 131 97 18 304 302 263 222 147 173 265 291 195 197 155 164 192 193 210 200 230 216 198 178 177 234 195
267 255 288 280 281 281 288 288 285 258 205 293 282 240 231 194 182 161 155 160 150 146 149 155 165 205 286 309 333 325 98 128 169 223 219 234 204 154 186 198 198 213 215 233 210 205 181 225 190
287 286 295 288 288 258 272 276 279 288 239 232 243 253 236 208 186 180 168 143 144 162 155 148 148 170 258 285 250 219 235 178 179 193 202 214 205 207 188 203 204 213 219 237 230 220 197 167 159
285 248 259 273 277 350 303 294 278 258 275 269 271 243 236 202 175 150 125 139 144 137 141 154 160 173 222 241 256 263 240 210 183 161 272 198 201 193 198 198 229 231 224 233 234 228 209 187 147
329 337 270 264 208 275 260 255 279 277 265 307 290 245 217 154 135 135 135 134 136 138 143 135 153 194 206 214 240 245 268 267 189 187 111 284 279 213 183 191 198 213 230 239 240 212 196 195 199
354 355 330 285 262 245 253 254 238 250 303 301 295 264 177 138 131 130 133 140 163 162 163 169 175 203 216 224 236 233 234 234 246 282 194 204 270 302 219 203 208 204 237 249 249 235 217 202 205
289 153 179 276 245 286 318 249 252 210 239 290 296 120 123 125 134 139 158 171 165 165 179 181 175 199 206 212 231 238 239 239 234 223 235 268 204 237 266 246 224 237 225 239 234 216 221 227 227
216 168 205 238 260 281 278 288 303 242 262 289 338 69 104 127 128 134 125 142 168 171 183 167 170 191 198 219 224 227 221 223 232 226 218 243 270 241 241 234 242 233 231 236 230 227 231 230 223
212 34 343 113 226 235 238 281 273 22 341 287 290 274 127 116 115 126 132 143 153 157 164 168 178 192 213 224 206 208 226 229 234 227 232 237 242 244 263 272 248 239 264 257 231 227 223 225 221
260 28 355 303 187 249 263 251 111 33 18 302 277 329 187 154 148 142 162 201 202 197 181 186 183 185 202 214 225 219 220 218 221 221 235 240 247 246 243 245 259 259 253 262 256 238 226 221 227
46 151 146 156 335 293 102 252 340 340 4 331 357 326 341 150 158 177 200 187 178 185 174 174 194 194 195 202 211 215 225 233 262 260 266 269 272 277 266 271 266 267 260 256 251 249 239 232 229